{"data":{"norad_id":46705,"intl_designator":"2020-073AM","name":"STARLINK-1805","alt_names":[],"object_type":"PAYLOAD","status":"ACTIVE","operator":null,"country":"US","launch_date":"2020-10-18","launch_site_code":"AFETR","launch_vehicle":null,"mission":null,"orbit_class":"UNKNOWN","rcs_meters":null,"size_class":null,"mass_kg":null,"dimensions":null,"purposes":["comms"],"wikipedia_slug":null,"has_3d_model":false,"image_url":null,"decayed_at":null,"tle_current":{"epoch":"2026-05-24T15:23:08.961216Z","epoch_age_seconds":105336,"freshness":"FRESH","line1":"1 46705U 20073AM  26144.64107594  .00058438  00000+0  55948-3 0  9998","line2":"2 46705  53.0445 233.8717 0002386 333.7246  26.3648 15.66134546308958","mean_motion":15.66134546,"eccentricity":0.0002386,"inclination_deg":53.0445,"raan_deg":233.8717,"arg_perigee_deg":333.7246,"mean_anomaly_deg":26.3648,"bstar":0.00055948,"rev_number":30895,"period_min":91.946123254726,"perigee_km":368.36769144618,"apogee_km":371.58789182475,"semimajor_km":6748.1147916355,"source":"CELESTRAK","updated_at":"2026-05-25T13:38:16.516635Z"}}}